OAL3LK LGAV-LCLK

Flight info

Callsign OAL3LK
Flight time N/A
Altitude 35000
Route KEA UL995 RDS UM601 EVENO M601 BONEK
Aircraft A306/H-SDE3FGHIRWY/LB1

Departure

Time N/A
Airport Athens Eleftherios Venizelos International Airport (LGAV)

Arrival

Time 2026-05-01 15:08
Airport Larnaca International Airport (LCLK)
Time Latitude Longitude Altitude Speed Heading
2026-05-01 14:15 37.28339 25.33467 29740 ft 560 kts 111°
2026-05-01 14:16 37.27064 25.38068 30133 ft 558 kts 113°
2026-05-01 14:16 37.25677 25.42613 30447 ft 558 kts 115°
2026-05-01 14:16 37.24221 25.47122 30789 ft 556 kts 116°
2026-05-01 14:16 37.22741 25.51603 31138 ft 555 kts 116°
2026-05-01 14:17 37.21240 25.56065 31362 ft 557 kts 117°
2026-05-01 14:17 37.19721 25.60546 31481 ft 561 kts 117°
2026-05-01 14:17 37.18191 25.65064 31646 ft 564 kts 116°
2026-05-01 14:17 37.16663 25.69593 31908 ft 564 kts 116°
2026-05-01 14:18 37.15140 25.74126 32195 ft 564 kts 116°
2026-05-01 14:18 37.13621 25.78658 32503 ft 563 kts 116°
2026-05-01 14:18 37.12102 25.83190 32789 ft 563 kts 116°
2026-05-01 14:18 37.11098 25.86185 32982 ft 562 kts 117°
2026-05-01 14:19 37.09093 25.92154 33363 ft 561 kts 117°
2026-05-01 14:19 37.07576 25.96662 33635 ft 560 kts 117°
2026-05-01 14:19 37.06065 26.01146 33997 ft 558 kts 117°
2026-05-01 14:19 37.04554 26.05618 34243 ft 558 kts 117°
2026-05-01 14:20 37.03043 26.10087 34464 ft 557 kts 117°
2026-05-01 14:20 36.99984 26.19102 34778 ft 559 kts 117°
2026-05-01 14:20 36.98464 26.23573 34979 ft 559 kts 117°
2026-05-01 14:21 36.96950 26.28032 35007 ft 556 kts 116°
2026-05-01 14:21 36.93943 26.36909 35019 ft 553 kts 116°
2026-05-01 14:22 36.89434 26.50173 35012 ft 553 kts 117°
2026-05-01 14:22 36.86415 26.59001 35010 ft 553 kts 117°
2026-05-01 14:23 36.83386 26.67817 34991 ft 553 kts 117°
2026-05-01 14:23 36.80332 26.76689 35000 ft 553 kts 117°
2026-05-01 14:24 36.77291 26.85507 34982 ft 552 kts 117°
2026-05-01 14:24 36.74246 26.94307 34992 ft 552 kts 117°
2026-05-01 14:25 36.71198 27.03097 34996 ft 553 kts 117°
2026-05-01 14:25 36.68138 27.11889 34992 ft 552 kts 117°
2026-05-01 14:26 36.63515 27.25111 34976 ft 552 kts 117°
2026-05-01 14:27 36.60459 27.33811 34974 ft 552 kts 117°
2026-05-01 14:27 36.57376 27.42570 34967 ft 552 kts 117°
2026-05-01 14:28 36.52742 27.55684 34964 ft 551 kts 117°
2026-05-01 14:28 36.49629 27.64462 34959 ft 551 kts 117°
2026-05-01 14:29 36.46553 27.73113 34955 ft 551 kts 117°
2026-05-01 14:30 36.40310 27.90594 34940 ft 551 kts 117°
2026-05-01 14:31 36.35627 28.03641 34939 ft 551 kts 117°
2026-05-01 14:31 36.32898 28.12615 34945 ft 553 kts 111°
2026-05-01 14:32 36.30530 28.21630 34941 ft 554 kts 109°
2026-05-01 14:32 36.28208 28.30745 34940 ft 554 kts 109°
2026-05-01 14:33 36.25887 28.39848 34928 ft 553 kts 109°
2026-05-01 14:33 36.23551 28.48930 34933 ft 552 kts 109°
2026-05-01 14:34 36.21204 28.57984 34931 ft 552 kts 110°
2026-05-01 14:34 36.18847 28.67022 34916 ft 552 kts 110°
2026-05-01 14:35 36.16485 28.76051 34932 ft 550 kts 110°
2026-05-01 14:35 36.14122 28.85060 34928 ft 549 kts 110°
2026-05-01 14:36 36.10438 28.99036 34925 ft 549 kts 110°
2026-05-01 14:36 36.05685 29.16967 34919 ft 548 kts 110°
2026-05-01 14:37 36.00911 29.34851 34916 ft 546 kts 110°
2026-05-01 14:37 35.96932 29.49666 34910 ft 546 kts 110°
2026-05-01 14:38 35.92140 29.67471 34908 ft 545 kts 110°
2026-05-01 14:38 35.87357 29.85190 34902 ft 544 kts 110°
2026-05-01 14:39 35.82582 30.02856 34903 ft 543 kts 109°
2026-05-01 14:39 35.78127 30.20614 34905 ft 541 kts 108°
2026-05-01 14:40 35.73654 30.38323 34905 ft 540 kts 109°
2026-05-01 14:40 35.69156 30.55925 34909 ft 538 kts 109°
2026-05-01 14:41 35.64641 30.73486 34911 ft 538 kts 109°
2026-05-01 14:41 35.60127 30.91033 34910 ft 538 kts 109°
2026-05-01 14:42 35.55692 31.08599 34915 ft 537 kts 109°
2026-05-01 14:42 35.51225 31.26131 34908 ft 537 kts 109°
2026-05-01 14:43 35.46743 31.43589 34916 ft 535 kts 109°
2026-05-01 14:43 35.42245 31.60992 34922 ft 535 kts 109°
2026-05-01 14:44 35.37693 31.78489 34922 ft 534 kts 109°
2026-05-01 14:44 35.30896 32.04404 34762 ft 527 kts 109°
2026-05-01 14:45 35.29010 32.11608 33467 ft 524 kts 109°
2026-05-01 14:45 35.26783 32.20122 31733 ft 522 kts 109°
2026-05-01 14:45 35.25677 32.24342 31018 ft 518 kts 109°
2026-05-01 14:46 35.24579 32.28527 30274 ft 515 kts 109°
2026-05-01 14:46 35.22396 32.36823 28678 ft 508 kts 109°
2026-05-01 14:46 35.21303 32.40965 27991 ft 501 kts 109°
2026-05-01 14:47 35.20236 32.45005 27279 ft 496 kts 109°
2026-05-01 14:47 35.19180 32.48995 26577 ft 491 kts 109°
2026-05-01 14:47 35.18134 32.52942 25942 ft 485 kts 109°
2026-05-01 14:48 35.16074 32.60700 24693 ft 474 kts 109°
2026-05-01 14:48 35.15066 32.64487 24166 ft 465 kts 109°
2026-05-01 14:48 35.13075 32.71947 22807 ft 456 kts 109°
2026-05-01 14:49 35.11134 32.79210 21542 ft 445 kts 109°
2026-05-01 14:49 35.09236 32.86292 20379 ft 434 kts 109°
2026-05-01 14:50 35.07988 32.90931 19694 ft 426 kts 109°
2026-05-01 14:50 35.05456 32.99938 18203 ft 412 kts 110°
2026-05-01 14:51 35.04511 33.03216 17497 ft 409 kts 110°
2026-05-01 14:51 35.02668 33.09622 15854 ft 395 kts 110°
2026-05-01 14:52 35.00868 33.15863 13928 ft 381 kts 110°
2026-05-01 14:52 34.99994 33.18890 12968 ft 373 kts 110°
2026-05-01 14:52 34.98345 33.24596 11800 ft 340 kts 110°
2026-05-01 14:53 34.97572 33.27269 11256 ft 328 kts 110°
2026-05-01 14:53 34.96821 33.29860 10702 ft 319 kts 110°
2026-05-01 14:53 34.96080 33.32414 10223 ft 325 kts 110°
2026-05-01 14:53 34.95307 33.35068 9879 ft 334 kts 110°
2026-05-01 14:54 34.94529 33.37739 9533 ft 336 kts 110°
2026-05-01 14:54 34.93755 33.40398 9241 ft 327 kts 110°
2026-05-01 14:54 34.93000 33.42990 9040 ft 314 kts 110°
2026-05-01 14:54 34.92284 33.45455 8771 ft 304 kts 110°
2026-05-01 14:55 34.91578 33.47870 8341 ft 302 kts 110°
2026-05-01 14:55 34.90875 33.50281 7913 ft 300 kts 110°
2026-05-01 14:55 34.90179 33.52662 7497 ft 297 kts 110°
2026-05-01 14:55 34.89490 33.55019 7077 ft 295 kts 110°
2026-05-01 14:56 34.88803 33.57368 6628 ft 294 kts 110°
2026-05-01 14:56 34.88143 33.59726 6177 ft 294 kts 105°
2026-05-01 14:56 34.88038 33.62173 5851 ft 286 kts 79°
2026-05-01 14:56 34.88587 33.64408 5613 ft 267 kts 68°
2026-05-01 14:57 34.89237 33.66455 5389 ft 252 kts 68°
2026-05-01 14:57 34.90214 33.70312 4959 ft 224 kts 75°
2026-05-01 14:57 34.90566 33.72157 4439 ft 225 kts 76°
2026-05-01 14:58 34.90923 33.74023 3936 ft 229 kts 76°
2026-05-01 14:58 34.91303 33.75907 3511 ft 227 kts 76°
2026-05-01 14:58 34.91684 33.77767 3110 ft 225 kts 76°
2026-05-01 14:58 34.92069 33.79609 2678 ft 225 kts 75°
2026-05-01 14:59 34.92451 33.81468 2216 ft 226 kts 76°
2026-05-01 14:59 34.92826 33.83308 2027 ft 224 kts 75°
2026-05-01 14:59 34.93194 33.85129 1992 ft 222 kts 74°
2026-05-01 14:59 34.93551 33.86960 1991 ft 221 kts 76°
2026-05-01 15:00 34.94271 33.90605 1993 ft 220 kts 75°
2026-05-01 15:00 34.94693 33.92387 1982 ft 220 kts 64°
2026-05-01 15:00 34.95692 33.93751 1993 ft 216 kts 28°
2026-05-01 15:01 34.97047 33.94502 1997 ft 213 kts 17°
2026-05-01 15:01 34.98498 33.94841 1990 ft 209 kts 352°
2026-05-01 15:01 34.99778 33.94210 1987 ft 199 kts 317°
2026-05-01 15:01 35.00482 33.92800 1987 ft 198 kts 282°
2026-05-01 15:02 35.00339 33.91162 1993 ft 197 kts 246°
2026-05-01 15:02 35.00115 33.90668 1994 ft 198 kts 239°
2026-05-01 15:02 34.99328 33.88072 1992 ft 199 kts 261°
2026-05-01 15:02 34.99080 33.86418 1988 ft 198 kts 260°
2026-05-01 15:03 34.98835 33.84810 1971 ft 185 kts 261°
2026-05-01 15:03 34.98604 33.83298 1990 ft 180 kts 260°
2026-05-01 15:03 34.98454 33.82310 1992 ft 177 kts 261°
2026-05-01 15:03 34.98156 33.80353 1991 ft 174 kts 260°
2026-05-01 15:04 34.97934 33.78890 1702 ft 180 kts 261°
2026-05-01 15:04 34.97782 33.77876 1524 ft 177 kts 261°
2026-05-01 15:04 34.97560 33.76393 1511 ft 188 kts 261°
2026-05-01 15:04 34.97316 33.74744 1510 ft 205 kts 259°
2026-05-01 15:05 34.97052 33.73026 1493 ft 208 kts 257°
2026-05-01 15:05 34.96432 33.71447 1690 ft 212 kts 224°
2026-05-01 15:05 34.95106 33.70677 1632 ft 210 kts 197°
2026-05-01 15:05 34.93695 33.70328 1487 ft 202 kts 199°
2026-05-01 15:06 34.92809 33.69221 1343 ft 178 kts 243°
2026-05-01 15:06 34.92063 33.68102 1168 ft 171 kts 217°
2026-05-01 15:06 34.91203 33.67137 952 ft 166 kts 227°
2026-05-01 15:06 34.90455 33.66136 696 ft 150 kts 221°
2026-05-01 15:07 34.89732 33.65321 511 ft 137 kts 225°
2026-05-01 15:07 34.89092 33.64501 261 ft 129 kts 224°
2026-05-01 15:07 34.88458 33.63718 107 ft 131 kts 224°
2026-05-01 15:07 34.87820 33.62941 36 ft 128 kts 223°
2026-05-01 15:08 34.87212 33.62199 27 ft 106 kts 224°
2026-05-01 15:08 34.86801 33.61695 27 ft 56 kts 224°
2026-05-01 15:08 34.86625 33.61474 25 ft 30 kts 243°
2026-05-01 15:08 34.86666 33.61350 28 ft 10 kts 314°
2026-05-01 15:09 34.86693 33.61316 28 ft 8 kts 314°
2026-05-01 15:09 34.86700 33.61307 30 ft 8 kts 314°
2026-05-01 15:09 34.86715 33.61237 26 ft 12 kts 245°
2026-05-01 15:09 34.86647 33.61143 27 ft 17 kts 225°
2026-05-01 15:10 34.86667 33.61048 27 ft 11 kts 316°
2026-05-01 15:10 34.86746 33.60966 27 ft 2 kts
2026-05-01 15:10 34.86767 33.61009 26 ft 3 kts 55°
2026-05-01 15:11 34.86783 33.61031 26 ft 6 kts 49°
2026-05-01 15:11 34.86797 33.61050 26 ft 0 kts 49°